START_TIME,STEP,MOV.,A46,t_acc.,A13,t_acc.,M47,t_acc.,A17,t_acc.,A28,t_acc.,M38,t_acc.
1979-07-22 23:07:37.090 ,0,0,,0,7.,4.8,0.,4.8,,0,0.,4.8,0.,4.8
1979-07-22 23:07:41.890 ,0,0,,0,3.,4.8,0.,4.8,,0,0.,4.8,0.,4.8
1979-07-22 23:07:46.690 ,0,0,,0,4.,4.8,0.,4.8,,0,0.,4.8,0.,4.8
1979-07-22 23:07:51.490 ,0,0,,0,0.,4.8,0.,4.8,,0,0.,4.8,0.,4.8
1979-07-22 23:07:56.290 ,0,0,,0,0.,4.8,0.,4.8,,0,0.,4.8,0.,4.8
1979-07-22 23:08:25.090 ,4,0,,0,4.,4.8,0.,4.8,,0,0.,4.8,0.,4.8
1979-07-22 23:08:29.890 ,4,0,,0,0.,4.8,0.,4.8,,0,0.,4.8,0.,4.8
1979-07-22 23:08:34.690 ,4,0,,0,2.,4.8,1.,4.8,,0,0.,4.8,0.,4.8
1979-07-22 23:08:39.490 ,4,0,,0,0.,4.8,0.,4.8,,0,0.,4.8,0.,4.8
1979-07-22 23:08:44.290 ,4,0,,0,0.,4.8,0.,4.8,,0,0.,4.8,0.,4.8
1979-07-22 23:08:49.090 ,3,0,,0,0.,4.8,0.,4.8,,0,0.,4.8,0.,4.8
1979-07-22 23:08:53.890 ,3,0,,0,0.,4.8,0.,4.8,,0,0.,4.8,0.,4.8
1979-07-22 23:08:58.690 ,3,0,,0,0.,4.8,0.,4.8,,0,0.,4.8,0.,4.8
1979-07-22 23:09:03.490 ,3,0,,0,6.,4.8,0.,4.8,,0,0.,4.8,0.,4.8
1979-07-22 23:09:08.290 ,3,0,,0,7.,4.8,2.,4.8,,0,0.,4.8,0.,4.8
1979-07-22 23:09:13.090 ,3,0,,0,6.,4.8,0.,4.8,,0,0.,4.8,1.,4.8
1979-07-22 23:09:17.890 ,3,0,,0,4.,4.8,0.,4.8,,0,0.,4.8,0.,4.8
1979-07-22 23:09:22.690 ,3,0,,0,6.,4.8,0.,4.8,,0,0.,4.8,0.,4.8
1979-07-22 23:09:27.490 ,3,0,,0,0.,4.8,0.,4.8,,0,0.,4.8,0.,4.8
1979-07-22 23:09:32.290 ,3,0,,0,0.,4.8,0.,4.8,,0,0.,4.8,0.,4.8
1979-07-22 23:09:37.090 ,2,0,,0,0.,4.8,0.,4.8,,0,0.,4.8,0.,4.8
1979-07-22 23:09:41.890 ,2,0,,0,0.,4.8,1.,4.8,,0,0.,4.8,0.,4.8
1979-07-22 23:09:46.690 ,2,0,,0,1.,4.8,1.,4.8,,0,0.,4.8,1.,4.8
1979-07-22 23:09:51.490 ,2,0,,0,6.,4.8,0.,4.8,,0,0.,4.8,0.,4.8
1979-07-22 23:09:56.290 ,2,0,,0,5.,4.8,0.,4.8,,0,0.,4.8,0.,4.8
1979-07-22 23:10:01.090 ,2,0,,0,5.,4.8,2.,4.8,,0,0.,4.8,1.,4.8
1979-07-22 23:10:05.890 ,2,0,,0,7.,4.8,3.,4.8,,0,0.,4.8,0.,4.8
1979-07-22 23:10:10.690 ,2,0,,0,0.,4.8,0.,4.8,,0,0.,4.8,1.,4.8
1979-07-22 23:10:15.490 ,2,0,,0,0.,4.8,0.,4.8,,0,0.,4.8,1.,4.8
1979-07-22 23:10:20.290 ,2,0,,0,0.,4.8,0.,4.8,,0,0.,4.8,0.,4.8
1979-07-22 23:10:25.090 ,1,0,,0,0.,4.8,0.,4.8,,0,0.,4.8,0.,4.8
1979-07-22 23:10:29.890 ,1,0,,0,0.,4.8,0.,4.8,,0,0.,4.8,1.,4.8
1979-07-22 23:10:34.690 ,1,0,,0,1.,4.8,0.,4.8,,0,0.,4.8,1.,4.8
1979-07-22 23:10:39.490 ,1,0,,0,3.,4.8,0.,4.8,,0,0.,4.8,0.,4.8
1979-07-22 23:10:44.290 ,1,0,,0,7.,4.8,0.,4.8,,0,0.,4.8,0.,4.8
1979-07-22 23:10:49.090 ,1,0,,0,5.,4.8,0.,4.8,,0,0.,4.8,1.,4.8
1979-07-22 23:10:53.890 ,1,0,,0,8.,4.8,1.,4.8,,0,0.,4.8,0.,4.8
1979-07-22 23:10:58.690 ,1,0,,0,5.,4.8,0.,4.8,,0,0.,4.8,0.,4.8
1979-07-22 23:11:03.490 ,1,0,,0,0.,4.8,0.,4.8,,0,0.,4.8,0.,4.8
1979-07-22 23:11:08.290 ,1,0,,0,0.,4.8,0.,4.8,,0,0.,4.8,0.,4.8
1979-07-22 23:11:13.090 ,0,0,,0,0.,4.8,0.,4.8,,0,0.,4.8,0.,4.8
1979-07-22 23:11:17.890 ,0,0,,0,0.,4.8,0.,4.8,,0,0.,4.8,1.,4.8
1979-07-22 23:11:22.690 ,0,0,,0,0.,4.8,0.,4.8,,0,0.,4.8,0.,4.8
1979-07-22 23:11:27.490 ,0,0,,0,1.,4.8,0.,4.8,,0,0.,4.8,0.,4.8
1979-07-22 23:11:32.290 ,0,0,,0,1.,4.8,0.,4.8,,0,0.,4.8,2.,4.8
1979-07-22 23:11:37.090 ,0,0,,0,3.,4.8,1.,4.8,,0,0.,4.8,0.,4.8
1979-07-22 23:11:41.890 ,0,0,,0,5.,4.8,1.,4.8,,0,0.,4.8,0.,4.8
1979-07-22 23:11:46.690 ,0,0,,0,0.,4.8,0.,4.8,,0,0.,4.8,0.,4.8
1979-07-22 23:11:51.490 ,0,0,,0,0.,4.8,0.,4.8,,0,0.,4.8,0.,4.8
1979-07-22 23:11:56.290 ,0,0,,0,0.,4.8,0.,4.8,,0,0.,4.8,0.,4.8
1979-07-22 23:12:01.090 ,0,0,,0,0.,4.8,0.,4.8,,0,0.,4.8,1.,4.8
1979-07-22 23:12:05.890 ,0,0,,0,0.,4.8,0.,4.8,,0,0.,4.8,0.,4.8
1979-07-22 23:12:10.690 ,0,0,,0,0.,4.8,0.,4.8,,0,0.,4.8,0.,4.8
1979-07-22 23:12:15.490 ,0,0,,0,4.,4.8,0.,4.8,,0,0.,4.8,0.,4.8
1979-07-22 23:12:20.290 ,0,0,,0,5.,4.8,2.,4.8,,0,0.,4.8,1.,4.8
1979-07-22 23:12:25.090 ,0,0,,0,1.,4.8,0.,4.8,,0,0.,4.8,0.,4.8
1979-07-22 23:12:29.890 ,0,0,,0,2.,4.8,0.,4.8,,0,0.,4.8,0.,4.8
1979-07-22 23:12:34.690 ,0,0,,0,2.,4.8,0.,4.8,,0,0.,4.8,0.,4.8
1979-07-22 23:12:39.490 ,0,0,,0,0.,4.8,0.,4.8,,0,0.,4.8,0.,4.8
1979-07-22 23:12:44.290 ,0,0,,0,0.,4.8,0.,4.8,,0,0.,4.8,0.,4.8
1979-07-22 23:12:49.090 ,1,0,,0,0.,4.8,0.,4.8,,0,0.,4.8,1.,4.8
1979-07-22 23:12:53.890 ,1,0,,0,1.,4.8,0.,4.8,,0,0.,4.8,0.,4.8
1979-07-22 23:12:58.690 ,1,0,,0,0.,4.8,0.,4.8,,0,0.,4.8,0.,4.8
1979-07-22 23:13:03.490 ,1,0,,0,7.,4.8,2.,4.8,,0,0.,4.8,1.,4.8
1979-07-22 23:13:08.290 ,1,0,,0,5.,4.8,0.,4.8,,0,0.,4.8,1.,4.8
1979-07-22 23:13:13.090 ,1,0,,0,0.,4.8,0.,4.8,,0,0.,4.8,0.,4.8
1979-07-22 23:13:17.890 ,1,0,,0,2.,4.8,0.,4.8,,0,0.,4.8,1.,4.8
1979-07-22 23:13:22.690 ,1,0,,0,1.,4.8,0.,4.8,,0,0.,4.8,1.,4.8
1979-07-22 23:13:27.490 ,1,0,,0,0.,4.8,0.,4.8,,0,0.,4.8,0.,4.8
1979-07-22 23:13:32.290 ,1,0,,0,0.,4.8,0.,4.8,,0,0.,4.8,2.,4.8
1979-07-22 23:13:37.090 ,2,0,,0,0.,4.8,0.,4.8,,0,0.,4.8,0.,4.8
1979-07-22 23:13:41.890 ,2,0,,0,0.,4.8,0.,4.8,,0,0.,4.8,0.,4.8
1979-07-22 23:13:46.690 ,2,0,,0,0.,4.8,0.,4.8,,0,0.,4.8,0.,4.8
1979-07-22 23:13:51.490 ,2,0,,0,2.,4.8,0.,4.8,,0,0.,4.8,0.,4.8
1979-07-22 23:13:56.290 ,2,0,,0,7.,4.8,0.,4.8,,0,0.,4.8,0.,4.8
1979-07-22 23:14:01.090 ,2,0,,0,1.,4.8,0.,4.8,,0,0.,4.8,0.,4.8
1979-07-22 23:14:05.890 ,2,0,,0,4.,4.8,1.,4.8,,0,0.,4.8,0.,4.8
1979-07-22 23:14:10.690 ,2,0,,0,4.,4.8,1.,4.8,,0,0.,4.8,0.,4.8
1979-07-22 23:14:15.490 ,2,0,,0,0.,4.8,0.,4.8,,0,0.,4.8,0.,4.8
1979-07-22 23:14:20.290 ,2,0,,0,0.,4.8,0.,4.8,,0,0.,4.8,0.,4.8
1979-07-22 23:14:25.090 ,3,0,,0,0.,4.8,0.,4.8,,0,0.,4.8,0.,4.8
1979-07-22 23:14:29.890 ,3,0,,0,0.,4.8,0.,4.8,,0,0.,4.8,0.,4.8
1979-07-22 23:14:34.690 ,3,0,,0,1.,4.8,0.,4.8,,0,0.,4.8,0.,4.8
1979-07-22 23:14:39.490 ,3,0,,0,3.,4.8,1.,4.8,,0,0.,4.8,0.,4.8
1979-07-22 23:14:44.290 ,3,0,,0,5.,4.8,0.,4.8,,0,0.,4.8,0.,4.8
1979-07-22 23:14:49.090 ,3,0,,0,0.,4.8,0.,4.8,,0,0.,4.8,0.,4.8
1979-07-22 23:14:53.890 ,3,0,,0,4.,4.8,0.,4.8,,0,0.,4.8,0.,4.8
1979-07-22 23:14:58.690 ,3,0,,0,3.,4.8,0.,4.8,,0,0.,4.8,1.,4.8
1979-07-22 23:15:03.490 ,3,0,,0,0.,4.8,0.,4.8,,0,0.,4.8,1.,4.8
1979-07-22 23:15:08.290 ,3,0,,0,0.,4.8,0.,4.8,,0,0.,4.8,1.,4.8
1979-07-22 23:15:13.090 ,4,0,,0,0.,4.8,0.,4.8,,0,0.,4.8,0.,4.8
1979-07-22 23:15:17.890 ,4,0,,0,0.,4.8,0.,4.8,,0,0.,4.8,2.,4.8
1979-07-22 23:15:22.690 ,4,0,,0,2.,4.8,0.,4.8,,0,0.,4.8,0.,4.8
1979-07-22 23:15:27.490 ,4,0,,0,6.,4.8,0.,4.8,,0,0.,4.8,0.,4.8
1979-07-22 23:15:32.290 ,4,0,,0,3.,4.8,0.,4.8,,0,0.,4.8,0.,4.8
1979-07-22 23:15:37.090 ,4,0,,0,5.,4.8,0.,4.8,,0,0.,4.8,1.,4.8
1979-07-22 23:15:41.890 ,4,0,,0,2.,4.8,0.,4.8,,0,0.,4.8,0.,4.8
1979-07-22 23:15:46.690 ,4,0,,0,4.,4.8,0.,4.8,,0,0.,4.8,0.,4.8
1979-07-22 23:15:51.490 ,4,0,,0,0.,4.8,0.,4.8,,0,0.,4.8,0.,4.8
1979-07-22 23:15:56.290 ,4,0,,0,0.,4.8,0.,4.8,,0,0.,4.8,0.,4.8
1979-07-22 23:16:01.090 ,5,0,,0,0.,4.8,0.,4.8,,0,0.,4.8,0.,4.8
1979-07-22 23:16:05.890 ,5,0,,0,0.,4.8,0.,4.8,,0,0.,4.8,1.,4.8
1979-07-22 23:16:10.690 ,5,0,,0,0.,4.8,0.,4.8,,0,0.,4.8,0.,4.8
1979-07-22 23:16:15.490 ,5,0,,0,5.,4.8,0.,4.8,,0,0.,4.8,0.,4.8
1979-07-22 23:16:20.290 ,5,0,,0,6.,4.8,0.,4.8,,0,0.,4.8,1.,4.8
1979-07-22 23:16:25.090 ,5,0,,0,3.,4.8,0.,4.8,,0,0.,4.8,0.,4.8
1979-07-22 23:16:29.890 ,5,0,,0,6.,4.8,0.,4.8,,0,0.,4.8,0.,4.8
1979-07-22 23:16:34.690 ,5,0,,0,7.,4.8,0.,4.8,,0,0.,4.8,1.,4.8
1979-07-22 23:16:39.490 ,5,0,,0,0.,4.8,0.,4.8,,0,0.,4.8,0.,4.8
1979-07-22 23:16:44.290 ,5,0,,0,0.,4.8,0.,4.8,,0,0.,4.8,1.,4.8
1979-07-22 23:16:49.090 ,6,0,,0,0.,4.8,0.,4.8,,0,0.,4.8,0.,4.8
1979-07-22 23:16:53.890 ,6,0,,0,0.,4.8,0.,4.8,,0,0.,4.8,1.,4.8
1979-07-22 23:16:58.690 ,6,0,,0,2.,4.8,0.,4.8,,0,0.,4.8,3.,4.8
1979-07-22 23:17:03.490 ,6,0,,0,10.,4.8,3.,4.8,,0,0.,4.8,3.,4.8
1979-07-22 23:17:08.290 ,6,0,,0,7.,4.8,1.,4.8,,0,0.,4.8,3.,4.8
1979-07-22 23:17:13.090 ,6,0,,0,10.,4.8,3.,4.8,,0,0.,4.8,1.,4.8
1979-07-22 23:17:17.890 ,6,0,,0,9.,4.8,1.,4.8,,0,0.,4.8,3.,4.8
1979-07-22 23:17:22.690 ,6,0,,0,8.,4.8,0.,4.8,,0,0.,4.8,3.,4.8
1979-07-22 23:17:27.490 ,6,0,,0,0.,4.8,0.,4.8,,0,0.,4.8,1.,4.8
1979-07-22 23:17:32.290 ,6,0,,0,0.,4.8,0.,4.8,,0,0.,4.8,2.,4.8
1979-07-22 23:17:37.090 ,7,0,,0,0.,4.8,0.,4.8,,0,0.,4.8,2.,4.8
1979-07-22 23:17:41.890 ,7,0,,0,0.,4.8,0.,4.8,,0,0.,4.8,3.,4.8
1979-07-22 23:17:46.690 ,7,0,,0,1.,4.8,0.,4.8,,0,0.,4.8,0.,4.8
1979-07-22 23:17:51.490 ,7,0,,0,7.,4.8,0.,4.8,,0,0.,4.8,0.,4.8
1979-07-22 23:17:56.290 ,7,0,,0,10.,4.8,0.,4.8,,0,0.,4.8,0.,4.8
1979-07-22 23:18:01.090 ,7,0,,0,14.,4.8,0.,4.8,,0,0.,4.8,0.,4.8
1979-07-22 23:18:05.890 ,7,0,,0,12.,4.8,0.,4.8,,0,0.,4.8,0.,4.8
1979-07-22 23:18:10.690 ,7,0,,0,12.,4.8,0.,4.8,,0,0.,4.8,0.,4.8
1979-07-22 23:18:15.490 ,7,0,,0,0.,4.8,0.,4.8,,0,0.,4.8,0.,4.8
1979-07-22 23:18:20.290 ,7,0,,0,0.,4.8,0.,4.8,,0,0.,4.8,0.,4.8
1979-07-22 23:18:25.090 ,7,0,,0,0.,4.8,0.,4.8,,0,0.,4.8,0.,4.8
1979-07-22 23:18:29.890 ,7,0,,0,0.,4.8,0.,4.8,,0,0.,4.8,0.,4.8
1979-07-22 23:18:34.690 ,7,0,,0,3.,4.8,0.,4.8,,0,0.,4.8,0.,4.8
1979-07-22 23:18:39.490 ,7,0,,0,19.,4.8,0.,4.8,,0,0.,4.8,0.,4.8
1979-07-22 23:18:44.290 ,7,0,,0,13.,4.8,0.,4.8,,0,0.,4.8,0.,4.8
1979-07-22 23:18:49.090 ,7,0,,0,10.,4.8,0.,4.8,,0,0.,4.8,0.,4.8
1979-07-22 23:18:53.890 ,7,0,,0,7.,4.8,0.,4.8,,0,0.,4.8,0.,4.8
1979-07-22 23:18:58.690 ,7,0,,0,10.,4.8,0.,4.8,,0,0.,4.8,0.,4.8
1979-07-22 23:19:03.490 ,7,0,,0,0.,4.8,0.,4.8,,0,0.,4.8,0.,4.8
1979-07-22 23:19:08.290 ,7,0,,0,0.,4.8,0.,4.8,,0,0.,4.8,1.,4.8
1979-07-22 23:19:13.090 ,6,0,,0,0.,4.8,0.,4.8,,0,0.,4.8,0.,4.8
1979-07-22 23:19:17.890 ,6,0,,0,0.,4.8,0.,4.8,,0,0.,4.8,1.,4.8
1979-07-22 23:19:22.690 ,6,0,,0,3.,4.8,2.,4.8,,0,0.,4.8,2.,4.8
1979-07-22 23:19:27.490 ,6,0,,0,12.,4.8,3.,4.8,,0,0.,4.8,2.,4.8
1979-07-22 23:19:32.290 ,6,0,,0,10.,4.8,2.,4.8,,0,0.,4.8,0.,4.8
1979-07-22 23:19:37.090 ,6,0,,0,8.,4.8,2.,4.8,,0,0.,4.8,2.,4.8
1979-07-22 23:19:41.890 ,6,0,,0,8.,4.8,1.,4.8,,0,0.,4.8,1.,4.8
1979-07-22 23:19:46.690 ,6,0,,0,10.,4.8,3.,4.8,,0,0.,4.8,2.,4.8
1979-07-22 23:19:51.490 ,6,0,,0,0.,4.8,0.,4.8,,0,0.,4.8,3.,4.8
1979-07-22 23:19:56.290 ,6,0,,0,0.,4.8,0.,4.8,,0,0.,4.8,2.,4.8
1979-07-22 23:20:01.090 ,5,0,,0,0.,4.8,0.,4.8,,0,0.,4.8,4.,4.8
1979-07-22 23:20:05.890 ,5,0,,0,0.,4.8,0.,4.8,,0,0.,4.8,2.,4.8
1979-07-22 23:20:10.690 ,5,0,,0,0.,4.8,0.,4.8,,0,0.,4.8,1.,4.8
1979-07-22 23:20:15.490 ,5,0,,0,2.,4.8,0.,4.8,,0,0.,4.8,0.,4.8
1979-07-22 23:20:20.290 ,5,0,,0,6.,4.8,0.,4.8,,0,0.,4.8,0.,4.8
1979-07-22 23:20:25.090 ,5,0,,0,5.,4.8,0.,4.8,,0,0.,4.8,1.,4.8
1979-07-22 23:20:29.890 ,5,0,,0,4.,4.8,0.,4.8,,0,0.,4.8,0.,4.8
1979-07-22 23:20:34.690 ,5,0,,0,0.,4.8,0.,4.8,,0,0.,4.8,0.,4.8
1979-07-22 23:20:39.490 ,5,0,,0,0.,4.8,0.,4.8,,0,0.,4.8,0.,4.8
1979-07-22 23:20:44.290 ,5,0,,0,0.,4.8,0.,4.8,,0,0.,4.8,0.,4.8
1979-07-22 23:20:49.090 ,4,0,,0,0.,4.8,0.,4.8,,0,0.,4.8,1.,4.8
1979-07-22 23:20:53.890 ,4,0,,0,0.,4.8,0.,4.8,,0,0.,4.8,1.,4.8
1979-07-22 23:20:58.690 ,4,0,,0,0.,4.8,0.,4.8,,0,0.,4.8,0.,4.8
1979-07-22 23:21:03.490 ,4,0,,0,9.,4.8,0.,4.8,,0,0.,4.8,0.,4.8
1979-07-22 23:21:08.290 ,4,0,,0,4.,4.8,0.,4.8,,0,0.,4.8,1.,4.8
1979-07-22 23:21:13.090 ,4,0,,0,3.,4.8,0.,4.8,,0,0.,4.8,0.,4.8
1979-07-22 23:21:17.890 ,4,0,,0,4.,4.8,0.,4.8,,0,0.,4.8,0.,4.8
1979-07-22 23:21:22.690 ,4,0,,0,5.,4.8,0.,4.8,,0,0.,4.8,0.,4.8
1979-07-22 23:21:27.490 ,4,0,,0,0.,4.8,0.,4.8,,0,0.,4.8,0.,4.8
1979-07-22 23:21:32.290 ,4,0,,0,0.,4.8,0.,4.8,,0,0.,4.8,0.,4.8
1979-07-22 23:21:37.090 ,3,0,,0,0.,4.8,0.,4.8,,0,0.,4.8,2.,4.8
1979-07-22 23:21:41.890 ,3,0,,0,0.,4.8,1.,4.8,,0,1.,4.8,0.,4.8
1979-07-22 23:21:46.690 ,3,0,,0,2.,4.8,0.,4.8,,0,0.,4.8,0.,4.8
1979-07-22 23:21:51.490 ,3,0,,0,7.,4.8,1.,4.8,,0,0.,4.8,0.,4.8
1979-07-22 23:21:56.290 ,3,0,,0,1.,4.8,0.,4.8,,0,0.,4.8,1.,4.8
1979-07-22 23:22:01.090 ,3,0,,0,3.,4.8,0.,4.8,,0,0.,4.8,1.,4.8
1979-07-22 23:22:05.890 ,3,0,,0,3.,4.8,0.,4.8,,0,0.,4.8,0.,4.8
1979-07-22 23:22:10.690 ,3,0,,0,3.,4.8,0.,4.8,,0,0.,4.8,0.,4.8
1979-07-22 23:22:15.490 ,3,0,,0,0.,4.8,0.,4.8,,0,0.,4.8,1.,4.8
1979-07-22 23:22:20.290 ,3,0,,0,0.,4.8,0.,4.8,,0,0.,4.8,1.,4.8
1979-07-22 23:22:25.090 ,2,0,,0,1.,4.8,0.,4.8,,0,0.,4.8,0.,4.8
1979-07-22 23:22:29.890 ,2,0,,0,0.,4.8,0.,4.8,,0,0.,4.8,1.,4.8
1979-07-22 23:22:34.690 ,2,0,,0,1.,4.8,0.,4.8,,0,0.,4.8,0.,4.8
1979-07-22 23:22:39.490 ,2,0,,0,2.,4.8,0.,4.8,,0,0.,4.8,0.,4.8
1979-07-22 23:22:44.290 ,2,0,,0,6.,4.8,0.,4.8,,0,0.,4.8,0.,4.8
1979-07-22 23:22:49.090 ,2,0,,0,6.,4.8,1.,4.8,,0,0.,4.8,0.,4.8
1979-07-22 23:22:53.890 ,2,0,,0,1.,4.8,0.,4.8,,0,0.,4.8,0.,4.8
1979-07-22 23:22:58.690 ,2,0,,0,4.,4.8,1.,4.8,,0,0.,4.8,1.,4.8
1979-07-22 23:23:03.490 ,2,0,,0,0.,4.8,0.,4.8,,0,0.,4.8,0.,4.8
1979-07-22 23:23:08.290 ,2,0,,0,0.,4.8,0.,4.8,,0,0.,4.8,1.,4.8
1979-07-22 23:23:13.090 ,1,0,,0,0.,4.8,0.,4.8,,0,0.,4.8,0.,4.8
1979-07-22 23:23:17.890 ,1,0,,0,0.,4.8,0.,4.8,,0,0.,4.8,0.,4.8
1979-07-22 23:23:22.690 ,1,0,,0,0.,4.8,0.,4.8,,0,0.,4.8,0.,4.8
1979-07-22 23:23:27.490 ,1,0,,0,5.,4.8,0.,4.8,,0,0.,4.8,0.,4.8
1979-07-22 23:23:32.290 ,1,0,,0,5.,4.8,0.,4.8,,0,0.,4.8,0.,4.8
1979-07-22 23:23:37.090 ,1,0,,0,4.,4.8,1.,4.8,,0,0.,4.8,1.,4.8
1979-07-22 23:23:41.890 ,1,0,,0,2.,4.8,0.,4.8,,0,0.,4.8,0.,4.8
1979-07-22 23:23:46.690 ,1,0,,0,4.,4.8,0.,4.8,,0,0.,4.8,1.,4.8
1979-07-22 23:23:51.490 ,1,0,,0,0.,4.8,0.,4.8,,0,0.,4.8,0.,4.8
1979-07-22 23:23:56.290 ,1,0,,0,0.,4.8,0.,4.8,,0,0.,4.8,1.,4.8
1979-07-22 23:24:01.090 ,0,0,,0,0.,4.8,0.,4.8,,0,0.,4.8,1.,4.8
1979-07-22 23:24:05.890 ,0,0,,0,0.,4.8,0.,4.8,,0,0.,4.8,0.,4.8
1979-07-22 23:24:10.690 ,0,0,,0,3.,4.8,2.,4.8,,0,0.,4.8,0.,4.8
1979-07-22 23:24:15.490 ,0,0,,0,10.,4.8,2.,4.8,,0,0.,4.8,0.,4.8
1979-07-22 23:24:20.290 ,0,0,,0,3.,4.8,0.,4.8,,0,0.,4.8,1.,4.8
1979-07-22 23:24:25.090 ,0,0,,0,9.,4.8,3.,4.8,,0,0.,4.8,0.,4.8
1979-07-22 23:24:29.890 ,0,0,,0,2.,4.8,1.,4.8,,0,0.,4.8,1.,4.8
1979-07-22 23:24:34.690 ,0,0,,0,4.,4.8,0.,4.8,,0,0.,4.8,0.,4.8
1979-07-22 23:24:39.490 ,0,0,,0,0.,4.8,0.,4.8,,0,0.,4.8,0.,4.8
1979-07-22 23:24:44.290 ,0,0,,0,0.,4.8,0.,4.8,,0,0.,4.8,0.,4.8
1979-07-22 23:24:49.090 ,0,0,,0,0.,4.8,0.,4.8,,0,0.,4.8,2.,4.8
1979-07-22 23:24:53.890 ,0,0,,0,0.,4.8,0.,4.8,,0,0.,4.8,0.,4.8
1979-07-22 23:24:58.690 ,0,0,,0,1.,4.8,1.,4.8,,0,0.,4.8,0.,4.8
1979-07-22 23:25:03.490 ,0,0,,0,3.,4.8,2.,4.8,,0,0.,4.8,0.,4.8
1979-07-22 23:25:08.290 ,0,0,,0,3.,4.8,1.,4.8,,0,0.,4.8,0.,4.8
1979-07-22 23:25:13.090 ,0,0,,0,5.,4.8,1.,4.8,,0,0.,4.8,0.,4.8
1979-07-22 23:25:17.890 ,0,0,,0,5.,4.8,1.,4.8,,0,0.,4.8,0.,4.8
1979-07-22 23:25:22.690 ,0,0,,0,5.,4.8,1.,4.8,,0,0.,4.8,0.,4.8
1979-07-22 23:25:27.490 ,0,0,,0,0.,4.8,0.,4.8,,0,0.,4.8,1.,4.8
1979-07-22 23:25:32.290 ,0,0,,0,0.,4.8,0.,4.8,,0,0.,4.8,0.,4.8
1979-07-22 23:25:37.090 ,1,0,,0,0.,4.8,0.,4.8,,0,0.,4.8,0.,4.8
1979-07-22 23:25:41.890 ,1,0,,0,0.,4.8,0.,4.8,,0,0.,4.8,0.,4.8
1979-07-22 23:25:46.690 ,1,0,,0,1.,4.8,0.,4.8,,0,0.,4.8,0.,4.8
1979-07-22 23:25:51.490 ,1,0,,0,5.,4.8,0.,4.8,,0,0.,4.8,1.,4.8
1979-07-22 23:25:56.290 ,1,0,,0,2.,4.8,0.,4.8,,0,0.,4.8,0.,4.8
1979-07-22 23:26:01.090 ,1,0,,0,3.,4.8,0.,4.8,,0,0.,4.8,1.,4.8
1979-07-22 23:26:05.890 ,1,0,,0,2.,4.8,0.,4.8,,0,0.,4.8,0.,4.8
1979-07-22 23:26:10.690 ,1,0,,0,2.,4.8,0.,4.8,,0,0.,4.8,2.,4.8
1979-07-22 23:26:15.490 ,1,0,,0,0.,4.8,0.,4.8,,0,0.,4.8,1.,4.8
1979-07-22 23:26:20.290 ,1,0,,0,0.,4.8,0.,4.8,,0,0.,4.8,0.,4.8
1979-07-22 23:26:25.090 ,2,0,,0,0.,4.8,0.,4.8,,0,0.,4.8,0.,4.8
1979-07-22 23:26:29.890 ,2,0,,0,0.,4.8,0.,4.8,,0,0.,4.8,0.,4.8
1979-07-22 23:26:34.690 ,2,0,,0,0.,4.8,0.,4.8,,0,0.,4.8,0.,4.8
1979-07-22 23:26:39.490 ,2,0,,0,8.,4.8,3.,4.8,,0,0.,4.8,1.,4.8
1979-07-22 23:26:44.290 ,2,0,,0,4.,4.8,0.,4.8,,0,0.,4.8,1.,4.8
1979-07-22 23:26:49.090 ,2,0,,0,4.,4.8,0.,4.8,,0,0.,4.8,1.,4.8
1979-07-22 23:26:53.890 ,2,0,,0,1.,4.8,0.,4.8,,0,0.,4.8,0.,4.8
1979-07-22 23:26:58.690 ,2,0,,0,2.,4.8,0.,4.8,,0,0.,4.8,1.,4.8
1979-07-22 23:27:03.490 ,2,0,,0,0.,4.8,0.,4.8,,0,0.,4.8,1.,4.8
1979-07-22 23:27:08.290 ,2,0,,0,0.,4.8,0.,4.8,,0,0.,4.8,0.,4.8
1979-07-22 23:27:13.090 ,3,0,,0,0.,4.8,0.,4.8,,0,0.,4.8,0.,4.8
1979-07-22 23:27:17.890 ,3,0,,0,0.,4.8,0.,4.8,,0,0.,4.8,0.,4.8
1979-07-22 23:27:22.690 ,3,0,,0,0.,4.8,0.,4.8,,0,0.,4.8,0.,4.8
1979-07-22 23:27:27.490 ,3,0,,0,8.,4.8,2.,4.8,,0,0.,4.8,0.,4.8
1979-07-22 23:27:32.290 ,3,0,,0,8.,4.8,0.,4.8,,0,0.,4.8,0.,4.8
1979-07-22 23:27:37.090 ,3,0,,0,2.,4.8,0.,4.8,,0,0.,4.8,0.,4.8
1979-07-22 23:27:41.890 ,3,0,,0,6.,4.8,0.,4.8,,0,0.,4.8,0.,4.8
1979-07-22 23:27:46.690 ,3,0,,0,1.,4.8,1.,4.8,,0,0.,4.8,1.,4.8
1979-07-22 23:27:51.490 ,3,0,,0,0.,4.8,0.,4.8,,0,0.,4.8,1.,4.8
1979-07-22 23:27:56.290 ,3,0,,0,0.,4.8,0.,4.8,,0,0.,4.8,1.,4.8
1979-07-22 23:28:01.090 ,4,0,,0,0.,4.8,0.,4.8,,0,0.,4.8,1.,4.8
1979-07-22 23:28:05.890 ,4,0,,0,0.,4.8,0.,4.8,,0,0.,4.8,0.,4.8
1979-07-22 23:28:10.690 ,4,0,,0,0.,4.8,0.,4.8,,0,0.,4.8,0.,4.8
1979-07-22 23:28:15.490 ,4,0,,0,3.,4.8,0.,4.8,,0,0.,4.8,1.,4.8
1979-07-22 23:28:20.290 ,4,0,,0,4.,4.8,0.,4.8,,0,0.,4.8,0.,4.8
1979-07-22 23:28:25.090 ,4,0,,0,5.,4.8,0.,4.8,,0,0.,4.8,0.,4.8
1979-07-22 23:28:29.890 ,4,0,,0,0.,4.8,0.,4.8,,0,0.,4.8,0.,4.8
1979-07-22 23:28:34.690 ,4,0,,0,2.,4.8,0.,4.8,,0,0.,4.8,0.,4.8
1979-07-22 23:28:39.490 ,4,0,,0,0.,4.8,0.,4.8,,0,0.,4.8,0.,4.8
1979-07-22 23:28:44.290 ,4,0,,0,0.,4.8,0.,4.8,,0,0.,4.8,0.,4.8
1979-07-22 23:28:49.090 ,5,0,,0,0.,4.8,0.,4.8,,0,0.,4.8,1.,4.8
1979-07-22 23:28:53.890 ,5,0,,0,0.,4.8,0.,4.8,,0,0.,4.8,1.,4.8
1979-07-22 23:28:58.690 ,5,0,,0,3.,4.8,0.,4.8,,0,0.,4.8,1.,4.8
1979-07-22 23:29:03.490 ,5,0,,0,4.,4.8,0.,4.8,,0,0.,4.8,0.,4.8
1979-07-22 23:29:08.290 ,5,0,,0,7.,4.8,0.,4.8,,0,0.,4.8,0.,4.8
1979-07-22 23:29:13.090 ,5,0,,0,2.,4.8,0.,4.8,,0,0.,4.8,0.,4.8
1979-07-22 23:29:17.890 ,5,0,,0,7.,4.8,0.,4.8,,0,0.,4.8,0.,4.8
1979-07-22 23:29:22.690 ,5,0,,0,4.,4.8,1.,4.8,,0,0.,4.8,1.,4.8
1979-07-22 23:29:27.490 ,5,0,,0,0.,4.8,0.,4.8,,0,0.,4.8,0.,4.8
1979-07-22 23:29:32.290 ,5,0,,0,0.,4.8,0.,4.8,,0,0.,4.8,2.,4.8
1979-07-22 23:29:37.090 ,6,0,,0,0.,4.8,0.,4.8,,0,0.,4.8,1.,4.8
1979-07-22 23:29:41.890 ,6,0,,0,0.,4.8,0.,4.8,,0,0.,4.8,3.,4.8
1979-07-22 23:29:46.690 ,6,0,,0,2.,4.8,2.,4.8,,0,1.,4.8,5.,4.8
1979-07-22 23:29:51.490 ,6,0,,0,15.,4.8,6.,4.8,,0,0.,4.8,3.,4.8
1979-07-22 23:29:56.290 ,6,0,,0,12.,4.8,2.,4.8,,0,0.,4.8,6.,4.8
1979-07-22 23:30:01.090 ,6,0,,0,15.,4.8,3.,4.8,,0,0.,4.8,2.,4.8
1979-07-22 23:30:05.890 ,6,0,,0,15.,4.8,3.,4.8,,0,0.,4.8,3.,4.8
1979-07-22 23:30:10.690 ,6,0,,0,8.,4.8,1.,4.8,,0,0.,4.8,3.,4.8
1979-07-22 23:30:15.490 ,6,0,,0,0.,4.8,1.,4.8,,0,0.,4.8,1.,4.8
1979-07-22 23:30:20.290 ,6,0,,0,0.,4.8,0.,4.8,,0,0.,4.8,5.,4.8
1979-07-22 23:30:25.090 ,7,0,,0,0.,4.8,0.,4.8,,0,0.,4.8,7.,4.8
1979-07-22 23:30:29.890 ,7,0,,0,0.,4.8,0.,4.8,,0,0.,4.8,2.,4.8
1979-07-22 23:30:34.690 ,7,0,,0,3.,4.8,0.,4.8,,0,0.,4.8,0.,4.8
1979-07-22 23:30:39.490 ,7,0,,0,13.,4.8,0.,4.8,,0,0.,4.8,1.,4.8
1979-07-22 23:30:44.290 ,7,0,,0,8.,4.8,0.,4.8,,0,0.,4.8,0.,4.8
1979-07-22 23:30:49.090 ,7,0,,0,17.,4.8,0.,4.8,,0,0.,4.8,1.,4.8
1979-07-22 23:30:53.890 ,7,0,,0,12.,4.8,0.,4.8,,0,0.,4.8,0.,4.8
1979-07-22 23:30:58.690 ,7,0,,0,8.,4.8,0.,4.8,,0,0.,4.8,0.,4.8
1979-07-22 23:31:03.490 ,7,0,,0,0.,4.8,0.,4.8,,0,0.,4.8,0.,4.8
1979-07-22 23:31:08.290 ,7,0,,0,0.,4.8,0.,4.8,,0,0.,4.8,0.,4.8
1979-07-22 23:31:13.090 ,3,1,,0,0.,4.8,0.,4.8,,0,0.,4.8,3.,4.8
1979-07-22 23:31:17.890 ,3,1,,0,0.,4.8,0.,4.8,,0,0.,4.8,3.,4.8
1979-07-22 23:31:22.690 ,3,1,,0,0.,4.8,0.,4.8,,0,0.,4.8,1.,4.8
1979-07-22 23:31:27.490 ,3,1,,0,1.,4.8,0.,4.8,,0,0.,4.8,0.,4.8
1979-07-22 23:31:32.290 ,3,1,,0,5.,4.8,0.,4.8,,0,0.,4.8,0.,4.8
1979-07-22 23:31:37.090 ,0,1,,0,8.,4.8,0.,4.8,,0,0.,4.8,0.,4.8
1979-07-22 23:31:41.890 ,0,1,,0,6.,4.8,1.,4.8,,0,0.,4.8,1.,4.8
1979-07-22 23:31:46.690 ,0,1,,0,5.,4.8,1.,4.8,,0,0.,4.8,0.,4.8
1979-07-22 23:31:51.490 ,0,1,,0,0.,4.8,0.,4.8,,0,0.,4.8,1.,4.8
1979-07-22 23:31:56.290 ,0,1,,0,0.,4.8,0.,4.8,,0,0.,4.8,2.,4.8
1979-07-22 23:32:01.090 ,4,1,,0,0.,4.8,0.,4.8,,0,0.,4.8,0.,4.8
1979-07-22 23:32:05.890 ,4,1,,0,0.,4.8,0.,4.8,,0,0.,4.8,2.,4.8
1979-07-22 23:32:10.690 ,4,1,,0,0.,4.8,0.,4.8,,0,0.,4.8,0.,4.8
1979-07-22 23:32:15.490 ,4,1,,0,1.,4.8,0.,4.8,,0,0.,4.8,1.,4.8
1979-07-22 23:32:20.290 ,4,1,,0,6.,4.8,0.,4.8,,0,0.,4.8,0.,4.8
1979-07-22 23:32:25.090 ,7,1,,0,3.,4.8,1.,4.8,,0,0.,4.8,0.,4.8
1979-07-22 23:32:29.890 ,7,1,,0,17.,4.8,1.,4.8,,0,0.,4.8,2.,4.8
1979-07-22 23:32:34.690 ,7,1,,0,11.,4.8,0.,4.8,,0,0.,4.8,6.,4.8
1979-07-22 23:32:39.490 ,7,1,,0,0.,4.8,0.,4.8,,0,0.,4.8,0.,4.8
1979-07-22 23:32:44.290 ,7,1,,0,0.,4.8,0.,4.8,,0,0.,4.8,0.,4.8
1979-07-22 23:32:49.090 ,3,1,,0,0.,4.8,0.,4.8,,0,0.,4.8,3.,4.8
1979-07-22 23:32:53.890 ,3,1,,0,0.,4.8,0.,4.8,,0,0.,4.8,0.,4.8
1979-07-22 23:32:58.690 ,3,1,,0,0.,4.8,0.,4.8,,0,0.,4.8,1.,4.8
1979-07-22 23:33:03.490 ,3,1,,0,3.,4.8,0.,4.8,,0,0.,4.8,0.,4.8
1979-07-22 23:33:08.290 ,3,1,,0,6.,4.8,0.,4.8,,0,0.,4.8,0.,4.8
1979-07-22 23:33:13.090 ,0,1,,0,2.,4.8,1.,4.8,,0,0.,4.8,4.,4.8
1979-07-22 23:33:17.890 ,0,1,,0,5.,4.8,0.,4.8,,0,0.,4.8,1.,4.8
1979-07-22 23:33:22.690 ,0,1,,0,3.,4.8,0.,4.8,,0,0.,4.8,0.,4.8
1979-07-22 23:33:27.490 ,0,1,,0,0.,4.8,0.,4.8,,0,0.,4.8,3.,4.8
1979-07-22 23:33:32.290 ,0,1,,0,0.,4.8,0.,4.8,,0,0.,4.8,2.,4.8
1979-07-22 23:33:37.090 ,4,1,,0,0.,4.8,0.,4.8,,0,0.,4.8,0.,4.8
1979-07-22 23:33:41.890 ,4,1,,0,0.,4.8,0.,4.8,,0,0.,4.8,1.,4.8
1979-07-22 23:33:46.690 ,4,1,,0,0.,4.8,0.,4.8,,0,0.,4.8,2.,4.8
1979-07-22 23:33:51.490 ,4,1,,0,2.,4.8,0.,4.8,,0,0.,4.8,0.,4.8
1979-07-22 23:33:56.290 ,4,1,,0,5.,4.8,0.,4.8,,0,0.,4.8,0.,4.8
1979-07-22 23:34:01.090 ,7,1,,0,10.,4.8,0.,4.8,,0,0.,4.8,2.,4.8
1979-07-22 23:34:05.890 ,7,1,,0,11.,4.8,1.,4.8,,0,0.,4.8,1.,4.8
1979-07-22 23:34:10.690 ,7,1,,0,15.,4.8,4.,4.8,,0,0.,4.8,1.,4.8
1979-07-22 23:34:15.490 ,7,1,,0,0.,4.8,0.,4.8,,0,0.,4.8,0.,4.8
1979-07-22 23:34:20.290 ,7,1,,0,0.,4.8,0.,4.8,,0,0.,4.8,0.,4.8
1979-07-22 23:34:25.090 ,3,1,,0,0.,4.8,0.,4.8,,0,0.,4.8,2.,4.8
1979-07-22 23:34:29.890 ,3,1,,0,0.,4.8,0.,4.8,,0,0.,4.8,8.,4.8
1979-07-22 23:34:34.690 ,3,1,,0,1.,4.8,0.,4.8,,0,0.,4.8,3.,4.8
1979-07-22 23:34:39.490 ,3,1,,0,4.,4.8,0.,4.8,,0,0.,4.8,0.,4.8
1979-07-22 23:34:44.290 ,3,1,,0,7.,4.8,0.,4.8,,0,0.,4.8,0.,4.8
1979-07-22 23:34:49.090 ,0,1,,0,5.,4.8,1.,4.8,,0,0.,4.8,1.,4.8
1979-07-22 23:34:53.890 ,0,1,,0,10.,4.8,0.,4.8,,0,0.,4.8,4.,4.8
1979-07-22 23:34:58.690 ,0,1,,0,7.,4.8,1.,4.8,,0,0.,4.8,0.,4.8
1979-07-22 23:35:03.490 ,0,1,,0,0.,4.8,0.,4.8,,0,0.,4.8,1.,4.8
1979-07-22 23:35:08.290 ,0,1,,0,0.,4.8,0.,4.8,,0,0.,4.8,1.,4.8
1979-07-22 23:35:13.090 ,4,1,,0,0.,4.8,1.,4.8,,0,0.,4.8,2.,4.8
1979-07-22 23:35:17.890 ,4,1,,0,0.,4.8,0.,4.8,,0,0.,4.8,0.,4.8
1979-07-22 23:35:22.690 ,4,1,,0,1.,4.8,0.,4.8,,0,0.,4.8,1.,4.8
1979-07-22 23:35:27.490 ,4,1,,0,6.,4.8,0.,4.8,,0,1.,4.8,0.,4.8
1979-07-22 23:35:32.290 ,4,1,,0,3.,4.8,0.,4.8,,0,0.,4.8,1.,4.8
1979-07-22 23:35:37.090 ,7,1,,0,6.,4.8,1.,4.8,,0,0.,4.8,2.,4.8
1979-07-22 23:35:41.890 ,7,1,,0,11.,4.8,1.,4.8,,0,0.,4.8,1.,4.8
1979-07-22 23:35:46.690 ,7,1,,0,20.,4.8,4.,4.8,,0,0.,4.8,3.,4.8
1979-07-22 23:35:51.490 ,7,1,,0,0.,4.8,0.,4.8,,0,0.,4.8,0.,4.8
1979-07-22 23:35:56.290 ,7,1,,0,0.,4.8,0.,4.8,,0,0.,4.8,0.,4.8
1979-07-22 23:36:01.090 ,3,1,,0,1.,4.8,0.,4.8,,0,0.,4.8,0.,4.8
1979-07-22 23:36:05.890 ,3,1,,0,0.,4.8,0.,4.8,,0,0.,4.8,4.,4.8
1979-07-22 23:36:10.690 ,3,1,,0,1.,4.8,1.,4.8,,0,0.,4.8,3.,4.8
1979-07-22 23:36:15.490 ,3,1,,0,5.,4.8,0.,4.8,,0,0.,4.8,0.,4.8
1979-07-22 23:36:20.290 ,3,1,,0,5.,4.8,0.,4.8,,0,0.,4.8,1.,4.8
1979-07-22 23:36:25.090 ,0,1,,0,6.,4.8,1.,4.8,,0,0.,4.8,1.,4.8
1979-07-22 23:36:29.890 ,0,1,,0,5.,4.8,0.,4.8,,0,0.,4.8,2.,4.8
1979-07-22 23:36:34.690 ,0,1,,0,9.,4.8,1.,4.8,,0,0.,4.8,1.,4.8
1979-07-22 23:36:39.490 ,0,1,,0,0.,4.8,0.,4.8,,0,0.,4.8,4.,4.8
1979-07-22 23:36:44.290 ,0,1,,0,0.,4.8,0.,4.8,,0,0.,4.8,2.,4.8
1979-07-22 23:36:49.090 ,4,1,,0,0.,4.8,0.,4.8,,0,0.,4.8,2.,4.8
1979-07-22 23:36:53.890 ,4,1,,0,1.,4.8,0.,4.8,,0,0.,4.8,2.,4.8
1979-07-22 23:36:58.690 ,4,1,,0,1.,4.8,0.,4.8,,0,0.,4.8,2.,4.8
1979-07-22 23:37:03.490 ,4,1,,0,2.,4.8,0.,4.8,,0,0.,4.8,0.,4.8
1979-07-22 23:37:08.290 ,4,1,,0,2.,4.8,0.,4.8,,0,0.,4.8,1.,4.8
1979-07-22 23:37:13.090 ,7,1,,0,7.,4.8,0.,4.8,,0,0.,4.8,2.,4.8
1979-07-22 23:37:17.890 ,7,1,,0,17.,4.8,1.,4.8,,0,0.,4.8,1.,4.8
1979-07-22 23:37:22.690 ,7,1,,0,13.,4.8,3.,4.8,,0,0.,4.8,6.,4.8
1979-07-22 23:37:27.490 ,7,1,,0,0.,4.8,0.,4.8,,0,0.,4.8,0.,4.8
1979-07-22 23:37:32.290 ,7,1,,0,0.,4.8,0.,4.8,,0,0.,4.8,0.,4.8
1979-07-22 23:37:37.090 ,3,1,,0,0.,4.8,0.,4.8,,0,0.,4.8,2.,4.8
1979-07-22 23:37:41.890 ,3,1,,0,0.,4.8,0.,4.8,,0,0.,4.8,1.,4.8
1979-07-22 23:37:46.690 ,3,1,,0,2.,4.8,0.,4.8,,0,1.,4.8,3.,4.8